"Pseudo-MPEC" for CAVWYR2

Created 2024 Oct 4 19:22:05 UT using Find_Orb

Click here for an explanation of pseudo-MPECs

 
 Astrometry: 
     CAVWYR2*1C2024 09 24.39098001 47 28.230+02 56 25.15   ~9P1M 19.69GVNEOCPG96
     CAVWYR2 1C2024 09 24.39607101 47 18.074+02 56 18.42   ~9P1M 19.93GVNEOCPG96
     CAVWYR2 1C2024 09 24.40115301 47 08.077+02 56 12.41   ~9P1M 19.98GVNEOCPG96
     CAVWYR2 1C2024 09 24.40623901 46 58.062+02 56 05.78   ~9P1M 20.70GVNEOCPG96
     CAVWYR2 KC2024 09 24.43619101 45 59.620+02 55 29.60   ~9P1M 20.20GVNEOCPI52
     CAVWYR2 KC2024 09 24.43674201 45 58.570+02 55 29.00   ~9P1M 20.20GVNEOCPI52

Station data:
(G96) Mt. Lemmon Survey  (N32.442729 W110.788720)  US/Arizona.  Observer E.
   J. Christensen. 1.5-m reflector + 10K CCD.
(I52) Steward Observatory, Mt. Lemmon Station  (N32.442570 W110.788920)
   US/Arizona.  Observers T. A. Pruyne, B. M. Africano, E. J. Christensen, G.
   A. Farneth, D. C. Fuls, A. R. Gibbs, A. D. Grauer, H. Gröller, J. A.
   Johnson, R. A. Kowalski, S. M. Larson, G. J. Leonard, D. Rankin, R. L.
   Seaman, F. C. Shelly, K. W. Wierzchoś. 1.0-m prime focus + CCD.

Orbital elements:  CAVWYR2
   Perihelion 2024 Jul 29.81176 +/- 58.9 TT = 19:28:56 (JD 2460521.31176)
Epoch 2024 Sep 24.0 TT = JDT 2460577.5   Earth MOID: 0.0028   Ve: 0.0201
M  33.22471880 +/- 60               Ma: 0.0171                   AutoNEOCP
n   0.59131091 +/- 0.307            Peri.  254.53411 +/- 44
a   1.40580618 +/- 0.487            Node    17.75190 +/- 47
e   0.5166631 +/- 0.241             Incl.    0.79052 +/- 1.0
P   1.667/608.805d         H 26.87  G  0.15   U 12.0  SR
q 0.67947789 +/- 0.12    Q 2.13213447 +/- 1.26            (J2000 ecliptic)
From 6 observations 2024 Sept. 24 (65.9 min); mean residual 0".29
Residuals in arcseconds: 
240924 G96  .18+  .37+    240924 G96  .18+  .04+    240924 I52  .15-  .03+    
240924 G96  .65-  .16-    240924 G96  .39+  .39-    240924 I52  .05+  .11+    

Ephemerides (geocentric):
Date (UTC) HH   RA             Dec           delta  r     elong  mag " sig PA
---- --------  ------------   ------------  ------ ------ -----  --- --------
2024 10 04 19  00 26 04.975   +01 54 30.63  .12014 1.1199 175.0 22.9  18d  93
2024 10 04 20  00 26 00.401   +01 54 27.12  .12052 1.1202 174.9 22.9  18d  93
2024 10 04 21  00 25 55.858   +01 54 23.65  .12090 1.1206 174.9 22.9  18d  93
2024 10 04 22  00 25 51.345   +01 54 20.21  .12129 1.1209 174.8 22.9  18d  93
2024 10 04 23  00 25 46.861   +01 54 16.80  .12167 1.1213 174.7 23.0  18d  93
2024 10 05 00  00 25 42.408   +01 54 13.42  .12205 1.1217 174.7 23.0  18d  93
2024 10 05 01  00 25 37.983   +01 54 10.09  .12244 1.1220 174.6 23.0  18d  93
2024 10 05 02  00 25 33.588   +01 54 06.78  .12282 1.1224 174.6 23.0  18d  93
2024 10 05 03  00 25 29.222   +01 54 03.51  .12321 1.1227 174.5 23.0  18d  93
2024 10 05 04  00 25 24.884   +01 54 00.27  .12359 1.1231 174.5 23.0  18d  93
2024 10 05 05  00 25 20.574   +01 53 57.06  .12397 1.1235 174.4 23.0  18d  93
2024 10 05 06  00 25 16.293   +01 53 53.89  .12436 1.1238 174.3 23.0  18d  93
2024 10 05 07  00 25 12.040   +01 53 50.75  .12474 1.1242 174.3 23.0  18d  93
2024 10 05 08  00 25 07.814   +01 53 47.64  .12513 1.1245 174.2 23.0  18d  93
2024 10 05 09  00 25 03.616   +01 53 44.57  .12551 1.1249 174.2 23.1  18d  93
2024 10 05 10  00 24 59.445   +01 53 41.52  .12589 1.1253 174.1 23.1  18d  93
2024 10 05 11  00 24 55.301   +01 53 38.51  .12628 1.1256 174.1 23.1  18d  93
2024 10 05 12  00 24 51.184   +01 53 35.53  .12666 1.1260 174.0 23.1  18d  93
2024 10 05 13  00 24 47.094   +01 53 32.59  .12705 1.1263 174.0 23.1  18d  93
2024 10 05 14  00 24 43.029   +01 53 29.67  .12743 1.1267 173.9 23.1  18d  93
2024 10 05 15  00 24 38.992   +01 53 26.79  .12782 1.1271 173.8 23.1  18d  93
2024 10 05 16  00 24 34.980   +01 53 23.93  .12821 1.1274 173.8 23.1  18d  93
2024 10 05 17  00 24 30.993   +01 53 21.11  .12859 1.1278 173.7 23.1  18d  93
2024 10 05 18  00 24 27.033   +01 53 18.32  .12898 1.1281 173.7 23.1  18d  93
2024 10 05 19  00 24 23.097   +01 53 15.56  .12936 1.1285 173.6 23.1  18d  93
2024 10 05 20  00 24 19.187   +01 53 12.83  .12975 1.1289 173.6 23.2  18d  93
2024 10 05 21  00 24 15.302   +01 53 10.13  .13013 1.1292 173.5 23.2  18d  93
2024 10 05 22  00 24 11.442   +01 53 07.47  .13052 1.1296 173.5 23.2  18d  93
2024 10 05 23  00 24 07.606   +01 53 04.83  .13091 1.1299 173.4 23.2  18d  93
2024 10 06 00  00 24 03.794   +01 53 02.22  .13129 1.1303 173.3 23.2  18d  93
2024 10 06 01  00 24 00.007   +01 52 59.64  .13168 1.1307 173.3 23.2  18d  93
2024 10 06 02  00 23 56.244   +01 52 57.10  .13207 1.1310 173.2 23.2  18d  93
2024 10 06 03  00 23 52.505   +01 52 54.58  .13245 1.1314 173.2 23.2  18d  93
2024 10 06 04  00 23 48.789   +01 52 52.09  .13284 1.1317 173.1 23.2  18d  93
2024 10 06 05  00 23 45.097   +01 52 49.63  .13323 1.1321 173.1 23.2  18d  93
2024 10 06 06  00 23 41.428   +01 52 47.20  .13361 1.1325 173.0 23.3  18d  93
2024 10 06 07  00 23 37.782   +01 52 44.80  .13400 1.1328 173.0 23.3  18d  93
2024 10 06 08  00 23 34.159   +01 52 42.43  .13439 1.1332 172.9 23.3  18d  93
2024 10 06 09  00 23 30.559   +01 52 40.09  .13477 1.1335 172.9 23.3  18d  93
2024 10 06 10  00 23 26.982   +01 52 37.78  .13516 1.1339 172.8 23.3  18d  93
2024 10 06 11  00 23 23.427   +01 52 35.49  .13555 1.1342 172.7 23.3  18d  93
2024 10 06 12  00 23 19.894   +01 52 33.24  .13594 1.1346 172.7 23.3  18d  93
2024 10 06 13  00 23 16.383   +01 52 31.01  .13633 1.1350 172.6 23.3  18d  93
2024 10 06 14  00 23 12.895   +01 52 28.81  .13671 1.1353 172.6 23.3  18d  93
2024 10 06 15  00 23 09.428   +01 52 26.64  .13710 1.1357 172.5 23.3  17d  93
2024 10 06 16  00 23 05.983   +01 52 24.50  .13749 1.1360 172.5 23.3  17d  93
2024 10 06 17  00 23 02.559   +01 52 22.38  .13788 1.1364 172.4 23.4  17d  93
2024 10 06 18  00 22 59.157   +01 52 20.30  .13827 1.1368 172.4 23.4  17d  93